Hourly Data Report for October 17, 2014

All times are specified in Local Standard Time (LST). Add 1 hour to adjust for Daylight Saving Time where and when it is observed.

CLYDE RIVER A
NUNAVUT

70°29'09.000" N
68°31'01.000" W
26.50 m
2400804
71090
YCY

Download Data

Hourly Data (October 2014)
Hourly Data Report for October 17, 2014
Temp Definition
°C
Dew Point Temp Definition
°C
Rel Hum Definition
%
Wind Dir Definition
10's deg

Wind Spd Definition
km/h
Visibility Definition
km
Stn Press Definition
kPa
Hmdx Definition


Wind Chill Definition


Weather Definition


TIME
00:00 Legend Double Dagger -3.1 -3.8 95 33 59 1.6 100.74   -13 Snow
01:00 Legend Double Dagger -3.3 -4.0 95 33 55 1.2 100.80   -13 Snow
02:00 Legend Double Dagger -3.2 -3.9 95 33 48 1.2 100.89   -12 Snow
03:00 Legend Double Dagger -3.5 -4.3 94 33 54 1.2 100.93   -13 Snow
04:00 Legend Double Dagger -3.6 -4.4 94 33 52 1.6 101.00   -13 Snow
05:00 Legend Double Dagger -3.8 -4.8 93 32 50 2.4 101.07   -13 Snow
06:00 Legend Double Dagger -3.6 -4.6 93 33 48 2.0 101.12   -13 Snow
07:00 Legend Double Dagger -3.3 -4.3 93 33 41 3.6 101.18   -12 Snow
08:00 Legend Double Dagger -3.1 -4.2 92 33 41 2.8 101.22   -12 Snow
09:00 Legend Double Dagger -3.2 -4.3 92 33 37 4.8 101.29   -11 Snow
10:00 Legend Double Dagger -3.2 -4.7 90 33 32 16.1 101.34   -11 Snow
11:00 Legend Double Dagger -3.3 -4.9 89 33 34 16.1 101.37   -11 Snow
12:00 Legend Double Dagger -3.4 -5.0 89 33 34 16.1 101.38   -11 Snow
13:00 Legend Double Dagger -4.1 -5.5 90 32 22 16.1 101.42   -11 Snow
14:00 Legend Double Dagger -4.0 -5.7 88 31 28 16.1 101.44   -11 Snow
15:00 Legend Double Dagger -5.0 -6.5 90 31 26 16.1 101.47   -12 Snow
16:00 Legend Double Dagger -3.9 -5.6 88 31 21 16.1 101.50   -10 Snow
17:00 Legend Double Dagger -4.0 -5.6 89 30 18 16.1 101.51   -10 Snow
18:00 Legend Double Dagger -4.2 -6.6 83 32 18 16.1 101.51   -10 Snow
19:00 Legend Double Dagger -4.5 -6.7 85 31 18 16.1 101.49   -11 LegendNANA
20:00 Legend Double Dagger -5.1 -6.5 90 28 18 8.1 101.47   -11 Snow
21:00 Legend Double Dagger -5.5 -6.6 92 29 26 4.8 101.45   -13 Snow
22:00 Legend Double Dagger -4.6 -5.4 94 31 28 2.8 101.42   -12 Snow
23:00 Legend Double Dagger -4.0 -5.1 92 31 26 16.1 101.37   -11 Snow

Notes on Data Quality.

Legend

  • E = Estimated
  • M = Missing
  • NA = Not Available
  • ‡ = Partner data that is not subject to review by the National Climate Archives
Date modified: